Location: Zagreb
(45.8000°N, 16.0000°E)
Time: 19:09:23
(UTC+02:00)

A-11 Canister half - Pass Details

Date: 16 August 2022
Orbit: 1524 x 1684 km, 47.3° (Epoch: 05 October)

Event Time Altitude Azimuth Distance (km) Brightness Sun altitude
Rises 13:06:18 0° 290° (WNW) 4,926 11.6 57.8°
Reaches altitude 10° 13:10:39 10° 275° (W) 3,917 11.3 57.8°
Maximum altitude 13:17:04 20° 234° (SW) 3,181 11.3 57.7°
Drops below altitude 10° 13:23:24 10° 193° (SSW) 3,831 11.8 57.5°
Sets 13:27:37 0° 177° (S) 4,783 12.1 57.3°
